{"data":{"norad_id":69143,"epoch":"2026-09-20T00:08:27.753792Z","epoch_age_seconds":65948,"freshness":"FRESH","line1":"1 69143U 26110V   26263.00587678  .00014049  00000+0  43647-3 0  9997","line2":"2 69143  97.2827  98.1257 0000979 103.3537 256.7815 15.33460352 20142","mean_motion":15.33460352,"eccentricity":9.79e-5,"inclination_deg":97.2827,"raan_deg":98.1257,"arg_perigee_deg":103.3537,"mean_anomaly_deg":256.7815,"bstar":0.00043647,"rev_number":2014,"period_min":93.905264529461,"perigee_km":464.82750629089,"apogee_km":466.16748992562,"semimajor_km":6843.6344981083,"source":"CELESTRAK","updated_at":"2026-09-20T09:00:44.088131Z"}}